FW9346 Weather Reports


Display with metric or nautical units.
time (UTC)temp
F
wind
direction
speed
MPH
gust
MPH
rain 1hr
in
rain 24hr
in
rain mn
in
humidity
%
barometer
mb
20260504174553 81 355 7.0 19.0 0.00 0.00 0.00 25 1002.7
20260504173050 80 33 8.0 14.0 0.00 0.00 0.00 27 1002.8
20260504171551 79 40 4.0 16.0 0.00 0.00 0.00 30 1002.8
20260504081539 55 140 1.0 4.0 0.00 0.00 0.00 60 1003.4
20260504044543 60 360 2.0 6.0 0.00 0.00 0.00 50 1006.6
20260504043049 60 360 3.0 6.0 0.00 0.00 0.00 50 1007.0
20260504041543 61 360 3.0 8.0 0.00 0.00 0.00 48 1007.0
20260504040048 63 105 4.0 7.0 0.00 0.00 0.00 46 1007.2
20260504034543 63 360 5.0 10.0 0.00 0.00 0.00 46 1007.4
20260504033043 64 360 5.0 8.0 0.00 0.00 0.00 45 1007.5
20260504031546 65 360 5.0 11.0 0.00 0.00 0.00 44 1007.7
20260504030043 65 360 6.0 11.0 0.00 0.00 0.00 43 1007.6
20260504024601 66 360 6.0 12.0 0.00 0.00 0.00 42 1007.6
20260504023048 66 360 3.0 8.0 0.00 0.00 0.00 42 1007.7
20260504021544 67 360 5.0 10.0 0.00 0.00 0.00 40 1007.6
20260504020046 69 360 4.0 10.0 0.00 0.00 0.00 39 1007.5
20260504014541 69 360 4.0 8.0 0.00 0.00 0.00 38 1007.3
20260504013051 70 360 5.0 10.0 0.00 0.00 0.00 37 1007.5
20260504011545 71 360 4.0 10.0 0.00 0.00 0.00 36 1007.5
20260504010052 72 360 5.0 10.0 0.00 0.00 0.00 35 1007.6
20260504004547 73 81 7.0 13.0 0.00 0.00 0.00 34 1007.7
20260504003046 74 85 9.0 13.0 0.00 0.00 0.00 33 1007.7
20260504001543 74 92 9.0 17.0 0.00 0.00 0.00 33 1007.6
20260504000106 75 91 6.0 11.0 0.00 0.00 0.00 32 1007.7
20260503234551 76 106 5.0 11.0 0.00 0.00 0.00 31 1007.9
20260503233043 76 84 7.0 11.0 0.00 0.00 0.00 30 1007.9
20260503231545 77 90 6.0 12.0 0.00 0.00 0.00 30 1008.2
20260503230042 77 118 6.0 12.0 0.00 0.00 0.00 29 1008.2
20260503224539 78 75 3.0 10.0 0.00 0.00 0.00 28 1008.3
20260503223040 79 223 2.0 6.0 0.00 0.00 0.00 27 1008.4
20260503221551 78 347 2.0 8.0 0.00 0.00 0.00 27 1008.7
20260503220043 78 44 4.0 13.0 0.00 0.00 0.00 28 1008.8
20260503214543 79 51 3.0 8.0 0.00 0.00 0.00 27 1009.0
20260503213048 79 184 3.0 7.0 0.00 0.00 0.00 28 1009.1
20260503211559 79 131 4.0 7.0 0.00 0.00 0.00 28 1009.2
20260503210048 78 347 1.0 6.0 0.00 0.00 0.00 28 1009.5
20260503204549 77 39 5.0 12.0 0.00 0.00 0.00 29 1009.8
20260503203105 77 65 3.0 12.0 0.00 0.00 0.00 29 1010.1
20260503201546 76 69 7.0 15.0 0.00 0.00 0.00 29 1010.1
20260503200054 76 57 4.0 17.0 0.00 0.00 0.00 30 1010.4
20260503194554 76 71 6.0 12.0 0.00 0.00 0.00 30 1010.4
20260503193051 75 76 9.0 14.0 0.00 0.00 0.00 31 1010.6
20260503191604 75 84 8.0 15.0 0.00 0.00 0.00 32 1010.9
20260503190051 74 66 4.0 17.0 0.00 0.00 0.00 33 1011.0
20260503184551 75 341 6.0 15.0 0.00 0.00 0.00 31 1011.1
20260503183046 75 33 9.0 17.0 0.00 0.00 0.00 32 1011.3
20260503181549 74 87 6.0 12.0 0.00 0.00 0.00 33 1011.6
20260503180049 74 53 6.0 12.0 0.00 0.00 0.00 32 1011.9